User: anonymous   Login
Location: Unspecified
(0.0000°N, 0.0000°E)
Time: 19:11:11
(UTC+00:00)
Language:

TOPSAT - Orbit

View from above orbital plane
View from above orbital plane
View from above satellite
View from above satellite

Ground track
Ground track

The orbit data is extracted from the following two-line orbital elements,

1 28891U 05043B   18111.53193815  .00000013  00000-0  11723-4 0  9999
2 28891  97.9255 258.3578 0015282 265.7199  94.2263 14.61324771665382
Epoch (UTC): 21 April 2018 12:45:59
Eccentricity: 0.0015282
inclination: 97.9255°
perigee height: 678 km
apogee height: 700 km
right ascension of ascending node: 258.3578°
argument of perigee: 265.7199°
revolutions per day: 14.61324771
mean anomaly at epoch: 94.2263°
orbit number at epoch: 66538

The dashed part of the orbit path shows where the satellite is in the earth's shadow,  

DLR